Regional Weather Roundup
Issued by NWS

Home | Current Version | Previous Version | Graphics & Text | Print | Product List | Glossary Off
Versions: 1 2 3 4 5 6 7 8 9 10 11 12 13 14 15 16 17 18 19 20 21 22 23 24 25 26 27 28 29 30 31 32 33 34 35 36 37 38 39 40 41 42 43 44 45 46 47 48 49 50

000
ASUS43 KBIS 251420
RWRND

NORTH DAKOTA REGIONAL WEATHER ROUNDUP
NATIONAL WEATHER SERVICE BISMARCK ND
800 AM CST SUN JAN 25 2015

NOTE: "FAIR" INDICATES FEW OR NO CLOUDS BELOW 12,000 FEET WITH NO
SIGNIFICANT WEATHER AND/OR OBSTRUCTIONS TO VISIBILITY.


NDZ001>003-009>011-017-251500-
NORTHWEST NORTH DAKOTA

CITY           SKY/WX    TMP DP  RH WIND       PRES   REMARKS
WILLISTON      CLOUDY    32  28  85 W7        29.99S
MINOT          CLOUDY    23  20  88 N6        29.98R WCI  16
MINOT AFB      CLOUDY    21  21  99 NW8       29.99R WCI  11
$$

NDZ018>021-031>035-040>046-251500-
SOUTHWEST NORTH DAKOTA

CITY           SKY/WX    TMP DP  RH WIND       PRES   REMARKS
BISMARCK       CLOUDY    36  32  85 NW8       29.98R
DICKINSON      CLOUDY    33  28  81 NW10      29.96F
GARRISON         N/A     33  31  92 NW13      29.95S
HETTINGER ARPT CLOUDY    33  27  78 NW13      30.00S
$$

NDZ004>008-012>016-024-026-027-054-251500-
NORTHEAST NORTH DAKOTA

CITY           SKY/WX    TMP DP  RH WIND       PRES   REMARKS
GRAND FORKS    PTCLDY    10   6  84 NW5       30.03R WCI   2
GRND FRKS AFB  CLEAR      8   4  83 N6        30.04R WCI  -2
DEVILS LAKE    CLOUDY    18  10  73 CALM      29.99R
$$

NDZ022-023-025-028>030-036>039-047>053-251500-
SOUTHEAST NORTH DAKOTA

CITY           SKY/WX    TMP DP  RH WIND       PRES   REMARKS
FARGO          MOCLDY    20  13  74 N8        30.00R WCI  10
JAMESTOWN      CLOUDY    20  16  84 N3        29.98R
$$



USA.gov is the U.S. government's official web portal to all federal, state and local government web resources and services.